Location: Columbia
(38.9520°N, 92.3340°W)
Time: 04:43:23
(UTC-05:00)

Cosmos 2219 Rocket - Visible Passes

Search period start: 31 July 2016 00:00
Search period end: 10 August 2016 00:00
Orbit: 829 x 846 km, 71.0° (Epoch: 30 July)

Date Brightness Start Highest point End Pass type
(mag) Time Alt. Az. Time Alt. Az. Time Alt. Az.
31 Jul 4.9 04:53:27 10° ESE 04:55:22 12° E 04:57:18 10° ENE visible
01 Aug 5.0 04:37:57 10° ESE 04:39:06 11° E 04:40:14 10° E visible
04 Aug 2.4 05:27:37 10° SSW 05:33:10 74° ESE 05:38:45 10° NNE visible
05 Aug 2.5 05:11:19 10° S 05:16:50 68° ESE 05:22:23 10° NNE visible
06 Aug 2.6 04:55:01 10° S 05:00:30 63° ESE 05:06:02 10° NNE visible
07 Aug 2.7 04:39:33 14° S 04:44:11 57° ESE 04:49:40 10° NNE visible
08 Aug 2.8 04:24:09 20° S 04:27:52 53° ESE 04:33:17 10° NNE visible
09 Aug 2.9 04:08:40 26° SSE 04:11:33 48° ESE 04:16:54 10° NE visible
